Regional Weather Roundup
Issued by NWS Sioux Falls, SD

Home | Current Version | Previous Version | Text Only | Print | Product List | Glossary On
Versions: 1 2 3 4 5 6 7 8 9 10 11 12 13 14 15 16 17 18 19 20 21 22 23 24 25 26 27 28 29 30 31 32 33 34 35 36 37 38 39 40 41 42 43 44 45 46 47 48 49 50
000
ASUS43 KFSD 290810
RWRFSD

WEATHER ROUNDUP FOR SE SOUTH DAKOTA/SW MINNESOTA/NW IOWA
NATIONAL WEATHER SERVICE SIOUX FALLS SD
200 AM CST THU JAN 29 2015

NOTE: "FAIR" INDICATES FEW OR NO CLOUDS BELOW 12,000 FEET WITH NO
SIGNIFICANT WEATHER AND OR OBSTRUCTIONS TO VISIBILITY.


SDZ038>040-050-052>070-290900-
SOUTHEAST SOUTH DAKOTA

CITY           SKY/WX    TMP DP  RH WIND       PRES   REMARKS
CHAMBERLAIN    CLOUDY    34  29  82 NW17G29   30.24R WCI  24
HURON          CLOUDY    33  27  78 NW23G31   30.18R WCI  21
MADISON        CLOUDY    30  30 100 NW25G38   30.08R WCI  16
MITCHELL       CLOUDY    34  29  82 NW24G30   30.19R WCI  21
SIOUX FALLS    CLOUDY    32  29  88 NW23G35   30.08R WCI  19
WINNER         CLOUDY    37  29  72 NW21G29   30.25R
YANKTON        CLOUDY    36  28  75 NW22G30   30.15R
$$

MNZ071-072-080-081-089-090-097-098-290900-
SOUTHWEST MINNESOTA

CITY           SKY/WX    TMP DP  RH WIND       PRES   REMARKS
FAIRMONT       CLOUDY    34  28  80 NW20G26   29.92R WCI  22
JACKSON        CLOUDY    32  30  93 NW32G39   29.96R WCI  17
LUVERNE        CLOUDY    34  30  86 NW24G30   30.05R WCI  21
MARSHALL       CLOUDY    30  25  80 N24G36    30.04R WCI  16
MONTEVIDEO     CLOUDY    30  28  93 N28G36    30.03R WCI  16
PIPESTONE      CLOUDY    32  28  86 N26G38    30.02R WCI  18
REDWOOD FALLS  CLOUDY    33  29  85 NW18G29   29.99R WCI  22
TRACY          CLOUDY    32  31  94 NW28G35   30.01R WCI  18
WINDOM         CLOUDY    32  30  93 NW23G33   29.97R FOG     WCI  19
WORTHINGTON    CLOUDY   N/A N/A N/A NW26G36   29.99R
$$

IAZ001>003-012>014-020>022-031-032-NEZ013-014-SDZ071-290900-
NORTHWEST IOWA

CITY           SKY/WX    TMP DP  RH WIND       PRES   REMARKS
CHEROKEE       CLOUDY    34  32  92 NW17G26   30.01R WCI  24
DENISON        CLOUDY    36  34  93 N20G31    29.99R
ESTHERVILLE    CLOUDY    32  30  92 N28G33    29.95R FOG     WCI  18
LE MARS        CLOUDY    36  30  80 NW17G25   30.08R
ORANGE CITY    CLOUDY    36  28  75 NW18G26   30.05R
SHELDON        CLOUDY    34  32  93 NW21G28   30.01R WCI  22
SIOUX CITY     CLOUDY    35  30  82 NW26G35   30.08R WCI  22
SPENCER        CLOUDY    34  29  82 N31G43    29.98R WCI  20
STORM LAKE     MIX PCPN  34  32  93 N24G35    29.98R WCI  21
$$

ABBREVIATIONS USED IN REMARKS
   TC - TEMPERATURE IN CELSIUS
  WCI - WIND CHILL INDEX
   HX - HEAT INDEX
  VSB - VISIBILITY



USA.gov is the U.S. government's official web portal to all federal, state and local government web resources and services.